CST,Max TemperatureF,Mean TemperatureF,Min TemperatureF,Max Dew PointF,MeanDew PointF,Min DewpointF,Max Humidity, Mean Humidity, Min Humidity, Max Sea Level PressureIn, Mean Sea Level PressureIn, Min Sea Level PressureIn, Max VisibilityMiles, Mean VisibilityMiles, Min VisibilityMiles, Max Wind SpeedMPH, Mean Wind SpeedMPH, Max Gust SpeedMPH,PrecipitationIn, CloudCover, Events, WindDirDegrees
2011-11-1,73,58,44,45,39,28,76,52,31,29.93,29.89,29.85,10,10,10,17,9,25,0.00,1,,186
2011-11-2,55,44,33,37,34,30,87,74,44,30.20,30.10,29.94,10,9,2,26,14,34,0.62,8,Rain-Snow,15
2011-11-3,51,40,26,30,28,21,86,62,37,30.30,30.26,30.18,10,10,10,18,13,26,0.00,2,,356
2011-11-4,55,38,21,37,26,16,86,67,21,30.29,30.21,30.07,10,10,10,15,4,20,0.00,1,,150
2011-11-5,59,50,41,43,40,36,87,68,48,30.05,29.88,29.69,10,9,5,26,16,33,0.00,1,,161
2011-11-6,57,52,46,43,35,25,71,53,29,30.03,29.84,29.68,10,10,10,25,17,34,0.00,1,,228
2011-11-7,60,42,24,39,26,19,86,62,20,30.22,30.15,30.11,10,9,5,13,2,18,0.01,2,Rain,60
2011-11-8,44,40,37,39,38,34,87,83,81,30.07,30.03,29.99,10,8,4,26,16,33,0.66,8,Rain,38
2011-11-9,50,42,33,34,26,18,87,59,30,30.27,30.17,30.04,10,10,5,24,12,31,0.06,2,,317
2011-11-10,46,35,24,21,16,7,80,50,20,30.30,30.23,30.11,10,10,10,15,7,22,0.00,1,,291
2011-11-11,60,45,30,30,27,21,80,56,27,30.03,29.82,29.75,10,10,10,15,6,21,0.00,1,,209
2011-11-12,60,45,30,36,32,25,87,64,31,29.74,29.57,29.43,10,10,10,21,7,25,0.00,1,,175
2011-11-13,55,46,37,39,31,21,81,52,30,29.61,29.43,29.26,10,10,10,25,9,31,0.00,1,,250
2011-11-14,60,48,37,36,29,18,81,51,19,29.71,29.63,29.54,10,10,10,16,5,23,0.00,1,,243
2011-11-15,59,44,24,34,24,14,81,49,18,30.08,29.84,29.65,10,10,10,17,6,24,0.00,1,,343
2011-11-16,44,32,19,19,11,-6,86,50,13,30.29,30.21,30.08,10,10,10,13,3,16,0.00,2,,330
2011-11-17,48,32,15,25,14,7,86,54,20,30.34,30.24,30.06,10,10,10,22,8,26,0.00,1,,220
2011-11-18,59,47,35,37,28,21,71,52,31,29.94,29.78,29.67,10,10,10,25,14,32,0.00,1,,191
2011-11-19,59,42,26,46,32,19,81,71,59,30.20,29.76,29.54,10,10,5,20,11,28,0.00,7,,125
2011-11-20,37,29,21,23,19,16,80,69,48,30.34,30.27,30.21,10,10,7,13,8,18,0.00,2,,26
2011-11-21,41,30,19,32,24,14,86,77,65,30.28,30.22,30.12,10,10,10,6,1,,0.00,7,,70
2011-11-22,42,40,37,37,36,34,93,83,76,30.13,30.07,30.03,5,3,2,7,2,,0.06,8,Rain,340
2011-11-23,51,42,33,39,35,30,93,84,62,30.21,30.17,30.13,10,4,0,13,5,,0.00,6,Fog,175
2011-11-24,69,51,33,43,37,30,87,63,27,30.11,29.99,29.89,10,9,2,23,8,32,0.00,1,,186
2011-11-25,55,50,44,48,44,39,82,77,72,29.88,29.78,29.68,10,7,5,20,12,25,0.00,5,Rain,180
2011-11-26,53,45,37,48,34,23,82,70,52,30.20,29.97,29.71,10,10,7,26,16,36,0.00,7,Rain,332
2011-11-27,39,32,24,25,20,16,69,57,45,30.28,30.23,30.20,10,10,10,21,14,29,0.00,5,,345
2011-11-28,42,28,14,25,18,10,86,70,45,30.22,30.14,30.08,10,10,10,8,1,,0.00,2,,178
2011-11-29,46,34,21,28,19,1,81,58,17,30.34,30.26,30.15,10,10,10,15,8,21,0.00,1,,350
2011-11-30,48,31,14,19,13,9,86,53,22,30.22,30.06,29.93,10,10,10,17,4,25,0.00,1,,176